This demonstration page uses our WeatherBlox Daily Observations layout. Learn more.

Left ArrowRight Arrow

41.55636, -103.73856

Hourly Observations for July 10, 2015

Temp ( °F °C ) Dew Point ( °F °C ) Humidity (%) Winds ( mph kmh ) Pressure ( in mb ) Visibility ( mi km ) Precip ( " mm )
12:53 am 00:53 Clear 62 16.7 59 15 90 90 ESE 9 15 29.85 1011 8 12.87472 0 0
1:53 am 01:53 Clear 61 16.1 58 14.4 90 90 ESE 6 9 29.85 1011 7 11.26538 0 0
2:53 am 02:53 Clear 61 16.1 58 14.4 90 90 SE 8 13 29.87 1011 7 11.26538 0 0
3:53 am 03:53 Clear 60 15.6 57 13.9 90 90 E 5 7 29.85 1011 9 14.48406 0 0
4:53 am 04:53 Clear 59 15 56 13.3 90 90 ENE 5 7 29.85 1011 8 12.87472 0 0
5:53 am 05:53 Sunny 62 16.7 56 13.3 80 80 Calm 29.85 1011 10 16.0934 0 0
6:53 am 06:53 Sunny 63 17.2 57 13.9 81 81 Calm 29.84 1011 10 16.0934 0 0
7:53 am 07:53 Partly Cloudy 65 18.3 58 14.4 78 78 WSW 6 9 29.84 1010 10 16.0934 0 0
8:53 am 08:53 Sunny 67 19.4 60 15.6 79 79 NNW 5 7 29.84 1011 10 16.0934 0 0
9:53 am 09:53 Cloudy 68 20 60 15.6 76 76 ESE 9 15 29.86 1011 10 16.0934 0 0
10:53 am 10:53 Sunny 70 21.1 60 15.6 71 71 ESE 13 20 29.86 1011 10 16.0934 0 0.0254
11:53 am 11:53 Cloudy 75 23.9 59 15 58 58 E 9 15 29.86 1011 10 16.0934 0 0
12:53 pm 12:53 Partly Cloudy 78 25.6 58 14.4 50 50 E 7 11 29.85 1011 10 16.0934 0 0
1:53 pm 13:53 Sunny 80 26.7 57 13.9 45 45 VRB 7 11 29.84 1011 10 16.0934 0 0
2:53 pm 14:53 Sunny 82 27.8 56 13.3 41 41 ESE 7 11 29.83 1010 10 16.0934 0 0
3:53 pm 15:53 Sunny 80 26.7 53 11.7 39 39 VRB 3 6 29.83 1010 10 16.0934 0 0
4:53 pm 16:53 Sunny 81 27.2 57 13.9 44 44 VRB 5 7 29.83 1010 10 16.0934 0 0
5:53 pm 17:53 Sunny 81 27.2 57 13.9 44 44 SE 7 11 29.81 1009 10 16.0934 0 0
6:53 pm 18:53 Sunny 79 26.1 60 15.6 52 52 S 9 15 29.81 1009 10 16.0934 0 0
7:53 pm 19:53 Sunny 77 25 60 15.6 56 56 SSE 8 13 29.8 1009 10 16.0934 0 0
8:53 pm 20:53 Clear 71 21.7 59 15 66 66 ESE 3 6 29.83 1010 10 16.0934 0 0
9:53 pm 21:53 Clear 67 19.4 61 16.1 81 81 E 5 7 29.85 1011 10 16.0934 0 0
10:53 pm 22:53 Partly Cloudy 66 18.9 60 15.6 81 81 E 6 9 29.85 1011 10 16.0934 0 0
11:53 pm 23:53 Clear 64 17.8 59 15 84 84 Calm 29.85 1011 10 16.0934 0 0

Powered by AerisWeather